Zurück zum Katalog

STARLINK-35506

AktivKommunikationVLEO
NORAD 66324·PAYLOAD·🇺🇸 United States

Gestartet Nov 6, 2025 von Cape Canaveral Space Force Station

Loading…

Nächste Überflüge (nächste 24 Stunden)

TLE

AktuellSource: CelesTrak SupGP

Epoche: Sep 14, 2026, 21:07 UTC

1 66324C 25253F   26257.88034722  .00039767  00000+0  14407-2 0  2570
2 66324  43.0022 223.7217 0000830 246.2803  76.9281 15.27551101    16

Verfolge STARLINK-35506 in Echtzeit mit AllMySat

Download on the App Store